sat.trackr.live / text

‹ back to catalog

ONEWEB-0102

NORAD 47258 · 2020-100A

PAYLOAD ACTIVE UNKNOWN

§ Identity

Operator
Country
UK
Launch date
2020-12-18
Launch site
VOSTO
Launch vehicle
Mass (kg)
RCS (m²)

Purposes: comms

External: N2YO · Heavens-Above · Gunter

§ Orbital elements

Epoch: 2026-05-25T02:38:54.328992Z

Period
109.72 min
Inclination
87.8951°
Eccentricity
0.0001512
Mean motion
13.12442976 rev/d
Perigee alt
1,212.6 km
Apogee alt
1,214.9 km
Semi-major
7,591.9 km
B*
1.1943e-3
RAAN
355.2662°
Arg perigee
81.1906°
Mean anomaly
278.9394°
Rev number
26,170

§ Raw data

ONEWEB-01021 47258U 20100A   26145.11035103  .00000442  00000+0  11943-2 0  99902 47258  87.8951 355.2662 0001512  81.1906 278.9394 13.12442976261706

JSON: /api/v1/satellites/47258 · /tle

For live sub-satellite position, see the globe view (requires WebGL).

§ Visibility from observer

Set your observer location to see the next 7 days of passes ≥ 10°. The values pass through the URL so the page stays shareable.

No JS? Fill the form by hand. The geolocation button needs JavaScript.